Time,TemperatureF,DewpointF,PressureIn,WindDirection,WindDirectionDegrees,WindSpeedMPH,WindSpeedGustMPH,Humidity,HourlyPrecipIn,Conditions,Clouds,dailyrainin,SolarRadiationWatts/m^2,SoftwareType,DateUTC
2013-02-06 00:02:00,34.9,30.6,29.53,SSW,209,5.0,5.0,84,0.00,RA,SCT,0.00,0.0,WeatherDisplay:10.37,2013-02-05 23:02:00,
2013-02-06 00:07:00,34.9,30.6,29.53,SW,223,4.0,4.0,84,0.00,RA,SCT,0.00,0.0,WeatherDisplay:10.37,2013-02-05 23:07:00,
2013-02-06 00:12:00,35.0,30.7,29.53,SSW,199,3.5,3.5,84,0.00,CLR,SCT,0.00,0.0,WeatherDisplay:10.37,2013-02-05 23:12:00,
2013-02-06 00:17:00,35.1,30.5,29.53,SW,229,4.6,4.6,83,0.00,CLR,SCT,0.00,0.0,WeatherDisplay:10.37,2013-02-05 23:17:00,
2013-02-06 00:22:00,35.1,30.5,29.53,SSW,211,5.0,5.0,83,0.00,CLR,SCT,0.00,0.0,WeatherDisplay:10.37,2013-02-05 23:22:00,
2013-02-06 00:28:00,35.2,30.6,29.52,SW,215,4.6,4.6,83,0.00,CLR,SCT,0.00,0.0,WeatherDisplay:10.37,2013-02-05 23:28:00,
2013-02-06 01:15:00,34.7,30.1,29.52,SW,215,12.7,12.7,83,0.00,RA,SCT,0.00,0.0,WeatherDisplay:10.37,2013-02-06 00:15:00,
2013-02-06 01:20:00,34.5,29.9,29.52,SSW,211,8.1,8.1,83,0.01,CLR,SCT,0.00,0.0,WeatherDisplay:10.37,2013-02-06 00:20:00,
2013-02-06 01:25:00,34.2,29.9,29.52,SSW,211,5.0,5.0,84,0.01,RA,SCT,0.00,0.0,WeatherDisplay:10.37,2013-02-06 00:25:00,
2013-02-06 01:30:00,33.8,29.5,29.52,SW,222,6.9,6.9,84,0.00,CLR,SCT,0.00,0.0,WeatherDisplay:10.37,2013-02-06 00:30:00,
2013-02-06 01:35:00,33.5,29.2,29.52,SW,215,6.9,6.9,84,0.00,CLR,SCT,0.00,0.0,WeatherDisplay:10.37,2013-02-06 00:35:00,
2013-02-06 01:40:00,33.2,28.9,29.52,SW,218,5.0,5.0,84,0.00,CLR,SCT,0.00,0.0,WeatherDisplay:10.37,2013-02-06 00:40:00,
2013-02-06 01:45:00,32.7,28.7,29.52,SSW,213,5.0,5.0,85,0.00,CLR,SCT,0.00,0.0,WeatherDisplay:10.37,2013-02-06 00:45:00,
2013-02-06 01:50:00,32.6,28.6,29.52,SW,215,4.6,4.6,85,0.00,CLR,SCT,0.00,0.0,WeatherDisplay:10.37,2013-02-06 00:50:00,
2013-02-06 01:55:00,32.6,28.9,29.52,SSW,211,3.5,3.5,86,0.00,CLR,SCT,0.00,0.0,WeatherDisplay:10.37,2013-02-06 00:55:00,
2013-02-06 02:00:00,32.7,28.7,29.52,SSW,207,4.6,4.6,85,0.00,CLR,SCT,0.00,0.0,WeatherDisplay:10.37,2013-02-06 01:00:00,
2013-02-06 02:05:00,32.5,28.5,29.52,SSW,205,4.6,4.6,85,0.00,CLR,SCT,0.00,0.0,WeatherDisplay:10.37,2013-02-06 01:05:00,
2013-02-06 02:10:00,32.2,28.2,29.52,SSW,203,3.5,3.5,85,0.00,CLR,SCT,0.00,0.0,WeatherDisplay:10.37,2013-02-06 01:10:00,
2013-02-06 02:15:00,32.1,28.4,29.52,SSW,203,3.5,3.5,86,0.01,CLR,SCT,0.00,0.0,WeatherDisplay:10.37,2013-02-06 01:15:00,
2013-02-06 02:20:00,32.1,28.4,29.52,SSW,204,3.5,3.5,86,0.00,CLR,SCT,0.00,0.0,WeatherDisplay:10.37,2013-02-06 01:20:00,
2013-02-06 02:25:00,32.2,28.2,29.52,SSW,195,4.0,4.0,85,0.00,CLR,SCT,0.00,0.0,WeatherDisplay:10.37,2013-02-06 01:25:00,
2013-02-06 02:30:00,32.5,28.5,29.52,SSW,194,5.8,5.8,85,0.00,CLR,SCT,0.00,0.0,WeatherDisplay:10.37,2013-02-06 01:30:00,
2013-02-06 02:36:00,32.5,28.5,29.52,SSW,205,3.5,3.5,85,0.00,CLR,SCT,0.00,0.0,WeatherDisplay:10.37,2013-02-06 01:36:00,
2013-02-06 02:41:00,32.4,28.4,29.52,SSW,204,4.0,4.0,85,0.00,CLR,SCT,0.00,0.0,WeatherDisplay:10.37,2013-02-06 01:41:00,
2013-02-06 02:47:00,32.4,28.4,29.51,South,188,3.5,3.5,85,0.00,CLR,SCT,0.00,0.0,WeatherDisplay:10.37,2013-02-06 01:47:00,
2013-02-06 02:52:00,32.4,28.4,29.52,South,184,3.5,3.5,85,0.00,CLR,SCT,0.00,0.0,WeatherDisplay:10.37,2013-02-06 01:52:00,
2013-02-06 02:57:00,32.2,28.2,29.52,South,171,5.0,5.0,85,0.00,CLR,SCT,0.00,0.0,WeatherDisplay:10.37,2013-02-06 01:57:00,
2013-02-06 03:03:00,32.2,28.2,29.51,SSE,159,4.0,4.0,85,0.00,CLR,SCT,0.00,0.0,WeatherDisplay:10.37,2013-02-06 02:03:00,
2013-02-06 03:08:00,32.1,28.1,29.51,SE,129,4.6,4.6,85,0.00,CLR,SCT,0.00,0.0,WeatherDisplay:10.37,2013-02-06 02:08:00,
2013-02-06 03:13:00,32.0,28.0,29.51,SE,130,2.3,2.3,85,0.00,CLR,SCT,0.00,0.0,WeatherDisplay:10.37,2013-02-06 02:13:00,
2013-02-06 03:18:00,32.0,28.0,29.50,SE,130,2.0,2.0,85,0.00,CLR,SCT,0.00,0.0,WeatherDisplay:10.37,2013-02-06 02:18:00,
2013-02-06 03:23:00,31.9,27.9,29.50,SE,141,3.5,3.5,85,0.00,CLR,SCT,0.00,0.0,WeatherDisplay:10.37,2013-02-06 02:23:00,
2013-02-06 03:28:00,32.1,28.1,29.50,SE,142,2.3,2.3,85,0.00,CLR,SCT,0.00,0.0,WeatherDisplay:10.37,2013-02-06 02:28:00,
2013-02-06 03:33:00,32.1,28.1,29.50,SE,141,2.3,2.3,85,0.00,CLR,SCT,0.00,0.0,WeatherDisplay:10.37,2013-02-06 02:33:00,
2013-02-06 03:39:00,32.3,28.3,29.50,SE,140,3.5,3.5,85,0.00,CLR,SCT,0.00,0.0,WeatherDisplay:10.37,2013-02-06 02:39:00,
2013-02-06 03:44:00,32.3,28.3,29.50,SE,142,3.5,3.5,85,0.00,CLR,SCT,0.00,0.0,WeatherDisplay:10.37,2013-02-06 02:44:00,
2013-02-06 03:49:00,32.4,28.4,29.50,SE,141,4.0,4.0,85,0.00,CLR,SCT,0.00,0.0,WeatherDisplay:10.37,2013-02-06 02:49:00,
2013-02-06 03:55:00,32.5,28.5,29.50,South,177,4.6,4.6,85,0.00,CLR,SCT,0.00,0.0,WeatherDisplay:10.37,2013-02-06 02:55:00,
2013-02-06 04:01:00,32.7,28.7,29.50,South,178,4.6,4.6,85,0.00,CLR,SCT,0.00,0.0,WeatherDisplay:10.37,2013-02-06 03:01:00,
2013-02-06 04:07:00,32.9,28.9,29.50,South,177,6.0,6.0,85,0.00,CLR,SCT,0.00,0.0,WeatherDisplay:10.37,2013-02-06 03:07:00,
2013-02-06 04:12:00,33.2,28.9,29.50,South,184,7.0,7.0,84,0.00,CLR,SCT,0.00,0.0,WeatherDisplay:10.37,2013-02-06 03:12:00,
2013-02-06 04:17:00,33.4,29.1,29.49,SSE,168,8.1,8.1,84,0.00,CLR,SCT,0.00,0.0,WeatherDisplay:10.37,2013-02-06 03:17:00,
2013-02-06 04:22:00,33.7,29.4,29.49,South,183,9.2,9.2,84,0.00,CLR,SCT,0.00,0.0,WeatherDisplay:10.37,2013-02-06 03:22:00,
2013-02-06 04:27:00,33.9,29.3,29.49,South,176,9.2,9.2,83,0.00,CLR,SCT,0.00,0.0,WeatherDisplay:10.37,2013-02-06 03:27:00,
2013-02-06 04:32:00,34.0,29.4,29.49,South,180,6.9,6.9,83,0.00,CLR,SCT,0.00,0.0,WeatherDisplay:10.37,2013-02-06 03:32:00,
2013-02-06 04:37:00,34.1,29.5,29.49,SSW,196,12.0,12.0,83,0.00,CLR,SCT,0.00,0.0,WeatherDisplay:10.37,2013-02-06 03:37:00,
2013-02-06 04:42:00,34.2,29.3,29.50,South,184,10.4,10.4,82,0.00,CLR,SCT,0.00,0.0,WeatherDisplay:10.37,2013-02-06 03:42:00,
2013-02-06 04:47:00,34.3,29.4,29.49,South,188,11.5,11.5,82,0.00,CLR,SCT,0.00,0.0,WeatherDisplay:10.37,2013-02-06 03:47:00,
2013-02-06 04:52:00,34.4,29.5,29.49,SSE,161,11.5,11.5,82,0.00,CLR,SCT,0.00,0.0,WeatherDisplay:10.37,2013-02-06 03:52:00,
2013-02-06 04:57:00,34.4,29.5,29.49,South,189,9.2,9.2,82,0.00,CLR,SCT,0.00,0.0,WeatherDisplay:10.37,2013-02-06 03:57:00,
2013-02-06 05:02:00,34.3,29.4,29.49,South,184,11.5,11.5,82,0.00,CLR,SCT,0.00,0.0,WeatherDisplay:10.37,2013-02-06 04:02:00,
2013-02-06 05:07:00,34.2,29.3,29.49,South,182,11.5,11.5,82,0.00,CLR,SCT,0.00,0.0,WeatherDisplay:10.37,2013-02-06 04:07:00,
2013-02-06 05:12:00,34.2,29.3,29.49,South,185,11.5,11.5,82,0.00,CLR,SCT,0.00,0.0,WeatherDisplay:10.37,2013-02-06 04:12:00,
2013-02-06 05:17:00,34.0,29.1,29.49,SSW,206,14.0,14.0,82,0.00,CLR,SCT,0.00,0.0,WeatherDisplay:10.37,2013-02-06 04:17:00,
2013-02-06 05:22:00,34.0,29.1,29.49,SSW,212,12.0,12.0,82,0.00,CLR,SCT,0.00,0.0,WeatherDisplay:10.37,2013-02-06 04:22:00,
2013-02-06 05:28:00,34.0,29.4,29.49,SSW,195,11.5,11.5,83,0.00,CLR,SCT,0.00,0.0,WeatherDisplay:10.37,2013-02-06 04:28:00,
2013-02-06 05:33:00,34.0,29.4,29.49,SW,214,12.0,12.0,83,0.00,CLR,SCT,0.00,0.0,WeatherDisplay:10.37,2013-02-06 04:33:00,
2013-02-06 05:38:00,33.9,29.3,29.49,South,189,10.4,10.4,83,0.00,CLR,SCT,0.00,0.0,WeatherDisplay:10.37,2013-02-06 04:38:00,
2013-02-06 05:43:00,33.9,29.3,29.49,SSW,207,13.0,13.0,83,0.00,CLR,SCT,0.00,0.0,WeatherDisplay:10.37,2013-02-06 04:43:00,
2013-02-06 05:48:00,34.2,29.6,29.50,SW,221,15.0,15.0,83,0.00,CLR,SCT,0.00,0.0,WeatherDisplay:10.37,2013-02-06 04:48:00,
2013-02-06 05:53:00,34.3,29.7,29.50,SW,228,19.6,19.6,83,0.00,CLR,SCT,0.00,0.0,WeatherDisplay:10.37,2013-02-06 04:53:00,
2013-02-06 05:58:00,34.0,29.1,29.50,SW,215,11.5,11.5,82,0.00,CLR,SCT,0.00,0.0,WeatherDisplay:10.37,2013-02-06 04:58:00,
2013-02-06 06:00:00,34.0,29.1,29.50,SW,227,18.4,18.4,82,0.00,CLR,SCT,0.00,0.0,WeatherDisplay:10.37,2013-02-06 05:00:00,
2013-02-06 06:02:00,34.0,29.1,29.50,SSW,200,16.1,16.1,82,0.00,CLR,SCT,0.00,0.0,WeatherDisplay:10.37,2013-02-06 05:02:00,
2013-02-06 06:07:00,33.9,28.7,29.51,SSW,211,12.7,12.7,81,0.00,CLR,SCT,0.00,0.0,WeatherDisplay:10.37,2013-02-06 05:07:00,
2013-02-06 06:12:00,33.7,28.2,29.51,SW,229,17.3,17.3,80,0.00,CLR,SCT,0.00,0.0,WeatherDisplay:10.37,2013-02-06 05:12:00,
2013-02-06 06:17:00,33.6,28.4,29.51,WSW,237,17.3,17.3,81,0.00,CLR,SCT,0.00,0.0,WeatherDisplay:10.37,2013-02-06 05:17:00,
2013-02-06 06:22:00,33.4,28.2,29.51,WSW,240,14.0,14.0,81,0.00,CLR,SCT,0.00,0.0,WeatherDisplay:10.37,2013-02-06 05:22:00,
2013-02-06 06:27:00,33.0,27.8,29.51,WSW,252,11.5,11.5,81,0.00,CLR,SCT,0.00,0.0,WeatherDisplay:10.37,2013-02-06 05:27:00,
2013-02-06 06:32:00,32.7,27.8,29.51,WSW,251,11.5,11.5,82,0.00,CLR,SCT,0.00,0.0,WeatherDisplay:10.37,2013-02-06 05:32:00,
2013-02-06 06:37:00,32.4,27.8,29.51,SW,233,12.7,12.7,83,0.00,CLR,SCT,0.00,0.0,WeatherDisplay:10.37,2013-02-06 05:37:00,
2013-02-06 06:42:00,32.2,27.6,29.52,WSW,239,10.0,10.0,83,0.00,CLR,SCT,0.00,0.0,WeatherDisplay:10.37,2013-02-06 05:42:00,
2013-02-06 06:47:00,32.0,27.7,29.52,West,262,7.0,7.0,84,0.00,CLR,SCT,0.00,0.0,WeatherDisplay:10.37,2013-02-06 05:47:00,
2013-02-06 06:52:00,31.7,27.4,29.52,WSW,240,8.0,8.0,84,0.00,CLR,SCT,0.00,0.0,WeatherDisplay:10.37,2013-02-06 05:52:00,
2013-02-06 06:55:00,31.5,27.5,29.52,West,264,6.9,6.9,85,0.00,CLR,SCT,0.00,0.0,WeatherDisplay:10.37,2013-02-06 05:55:00,
2013-02-06 06:56:00,31.4,27.4,29.52,WSW,238,7.0,7.0,85,0.00,CLR,SCT,0.00,0.0,WeatherDisplay:10.37,2013-02-06 05:56:00,
2013-02-06 07:01:00,31.0,27.0,29.52,WSW,247,7.0,7.0,85,0.00,CLR,SCT,0.00,0.0,WeatherDisplay:10.37,2013-02-06 06:01:00,
2013-02-06 07:06:00,30.6,26.9,29.53,WSW,243,5.8,5.8,86,0.00,OVC,SCT,0.00,0.0,WeatherDisplay:10.37,2013-02-06 06:06:00,
2013-02-06 07:11:00,30.3,26.6,29.53,WSW,244,3.5,3.5,86,0.00,OVC,SCT,0.00,0.0,WeatherDisplay:10.37,2013-02-06 06:11:00,
2013-02-06 07:16:00,30.1,26.4,29.53,West,259,4.6,4.6,86,0.00,OVC,SCT,0.00,0.0,WeatherDisplay:10.37,2013-02-06 06:16:00,
2013-02-06 07:21:00,30.0,26.6,29.53,West,261,4.6,4.6,87,0.00,OVC,SCT,0.00,0.0,WeatherDisplay:10.37,2013-02-06 06:21:00,
2013-02-06 07:26:00,29.7,26.0,29.53,West,261,3.5,3.5,86,0.00,OVC,SCT,0.00,0.0,WeatherDisplay:10.37,2013-02-06 06:26:00,
2013-02-06 07:31:00,29.5,26.1,29.53,West,261,3.5,3.5,87,0.00,OVC,SCT,0.00,0.0,WeatherDisplay:10.37,2013-02-06 06:31:00,
2013-02-06 07:36:00,29.1,25.7,29.53,West,261,3.5,3.5,87,0.00,OVC,SCT,0.00,5.0,WeatherDisplay:10.37,2013-02-06 06:36:00,
2013-02-06 07:41:00,28.9,25.5,29.53,West,261,4.0,4.0,87,0.00,OVC,SCT,0.00,7.0,WeatherDisplay:10.37,2013-02-06 06:41:00,
2013-02-06 07:46:00,28.8,25.4,29.54,West,262,4.0,4.0,87,0.00,OVC,SCT,0.00,9.0,WeatherDisplay:10.37,2013-02-06 06:46:00,
2013-02-06 07:51:00,28.8,25.4,29.54,West,260,4.6,4.6,87,0.00,OVC,SCT,0.00,11.0,WeatherDisplay:10.37,2013-02-06 06:51:00,
2013-02-06 07:56:00,28.7,25.3,29.54,WSW,257,5.0,5.0,87,0.00,OVC,SCT,0.00,12.0,WeatherDisplay:10.37,2013-02-06 06:56:00,
2013-02-06 08:01:00,28.7,25.3,29.54,WSW,258,4.6,4.6,87,0.00,OVC,SCT,0.00,14.0,WeatherDisplay:10.37,2013-02-06 07:01:00,
2013-02-06 08:06:00,28.7,25.3,29.54,WSW,243,4.6,4.6,87,0.00,OVC,SCT,0.00,16.0,WeatherDisplay:10.37,2013-02-06 07:06:00,
2013-02-06 08:11:00,28.7,25.3,29.54,WSW,244,3.5,3.5,87,0.00,OVC,SCT,0.00,19.0,WeatherDisplay:10.37,2013-02-06 07:11:00,
2013-02-06 08:16:00,28.7,25.3,29.54,WSW,244,4.0,4.0,87,0.00,OVC,SCT,0.00,21.0,WeatherDisplay:10.37,2013-02-06 07:16:00,
2013-02-06 08:21:00,28.8,25.4,29.54,WSW,241,8.0,8.0,87,0.00,OVC,SCT,0.00,23.0,WeatherDisplay:10.37,2013-02-06 07:21:00,
2013-02-06 08:26:00,29.3,25.9,29.54,WSW,243,5.8,5.8,87,0.00,OVC,SCT,0.00,26.0,WeatherDisplay:10.37,2013-02-06 07:26:00,
2013-02-06 08:31:00,29.7,26.0,29.54,West,265,7.0,7.0,86,0.00,OVC,SCT,0.00,28.0,WeatherDisplay:10.37,2013-02-06 07:31:00,
2013-02-06 08:36:00,30.0,26.3,29.54,West,263,6.0,6.0,86,0.00,OVC,SCT,0.00,32.0,WeatherDisplay:10.37,2013-02-06 07:36:00,
2013-02-06 08:41:00,30.1,26.1,29.54,West,275,8.1,8.1,85,0.00,OVC,SCT,0.00,54.0,WeatherDisplay:10.37,2013-02-06 07:41:00,
2013-02-06 08:46:00,30.5,26.5,29.54,West,273,8.1,8.1,85,0.00,BKN,SCT,0.00,84.0,WeatherDisplay:10.37,2013-02-06 07:46:00,
2013-02-06 08:51:00,31.0,26.7,29.54,West,270,6.0,6.0,84,0.00,BKN,SCT,0.00,102.0,WeatherDisplay:10.37,2013-02-06 07:51:00,
2013-02-06 08:56:00,31.4,26.8,29.54,West,269,5.0,5.0,83,0.00,OVC,SCT,0.00,49.0,WeatherDisplay:10.37,2013-02-06 07:56:00,
2013-02-06 09:01:00,31.5,26.9,29.54,West,261,6.9,6.9,83,0.00,OVC,SCT,0.00,72.0,WeatherDisplay:10.37,2013-02-06 08:01:00,
2013-02-06 09:06:00,31.6,27.0,29.54,WSW,241,6.0,6.0,83,0.00,OVC,SCT,0.00,65.0,WeatherDisplay:10.37,2013-02-06 08:06:00,
2013-02-06 09:11:00,31.9,27.0,29.54,WSW,244,7.0,7.0,82,0.00,BKN,SCT,0.00,98.0,WeatherDisplay:10.37,2013-02-06 08:11:00,
2013-02-06 09:16:00,32.2,27.0,29.54,WSW,238,5.8,5.8,81,0.00,OVC,SCT,0.00,69.0,WeatherDisplay:10.37,2013-02-06 08:16:00,
2013-02-06 09:21:00,32.5,27.0,29.55,SW,227,4.6,4.6,80,0.00,OVC,SCT,0.00,51.0,WeatherDisplay:10.37,2013-02-06 08:21:00,
2013-02-06 09:26:00,32.8,27.0,29.55,SW,232,6.0,6.0,79,0.00,OVC,SCT,0.00,60.0,WeatherDisplay:10.37,2013-02-06 08:26:00,
2013-02-06 09:31:00,33.4,27.3,29.55,WSW,240,4.0,4.0,78,0.00,OVC,SCT,0.00,102.0,WeatherDisplay:10.37,2013-02-06 08:31:00,
2013-02-06 09:36:00,34.3,27.2,29.55,WSW,242,3.5,3.5,75,0.00,BKN,SCT,0.00,90.0,WeatherDisplay:10.37,2013-02-06 08:36:00,
2013-02-06 09:41:00,35.0,26.9,29.55,SW,225,7.0,7.0,72,0.00,BKN,SCT,0.00,163.0,WeatherDisplay:10.37,2013-02-06 08:41:00,
2013-02-06 09:46:00,35.3,26.8,29.55,WSW,239,6.9,6.9,71,0.00,SCT,,0.00,211.0,WeatherDisplay:10.37,2013-02-06 08:46:00,
2013-02-06 09:51:00,35.8,27.3,29.55,SW,234,5.8,5.8,71,0.00,SCT,,0.00,229.0,WeatherDisplay:10.37,2013-02-06 08:51:00,
2013-02-06 09:56:00,36.7,27.5,29.55,WSW,238,4.6,4.6,69,0.00,CLR,SCT,0.00,308.0,WeatherDisplay:10.37,2013-02-06 08:56:00,
2013-02-06 10:01:00,37.7,27.7,29.55,SW,221,6.0,6.0,67,0.00,FEW,SCT,0.00,281.0,WeatherDisplay:10.37,2013-02-06 09:01:00,
2013-02-06 10:06:00,38.5,27.7,29.56,WSW,253,4.6,4.6,65,0.00,FEW,SCT,0.00,271.0,WeatherDisplay:10.37,2013-02-06 09:06:00,
2013-02-06 10:11:00,38.6,26.7,29.56,SW,235,5.8,5.8,62,0.00,FEW,SCT,0.00,301.0,WeatherDisplay:10.37,2013-02-06 09:11:00,
2013-02-06 10:16:00,38.8,27.3,29.56,WSW,242,6.0,6.0,63,0.00,FEW,SCT,0.00,325.0,WeatherDisplay:10.37,2013-02-06 09:16:00,
2013-02-06 10:21:00,39.5,28.3,29.55,WSW,244,8.0,8.0,64,0.00,FEW,SCT,0.00,336.0,WeatherDisplay:10.37,2013-02-06 09:21:00,
2013-02-06 10:26:00,39.9,28.7,29.55,WSW,255,8.1,8.1,64,0.00,FEW,SCT,0.00,294.0,WeatherDisplay:10.37,2013-02-06 09:26:00,
2013-02-06 10:31:00,40.0,28.8,29.56,WSW,244,6.9,6.9,64,0.00,FEW,SCT,0.00,311.0,WeatherDisplay:10.37,2013-02-06 09:31:00,
2013-02-06 10:36:00,39.9,27.5,29.56,SW,230,9.2,9.2,61,0.00,FEW,SCT,0.00,309.0,WeatherDisplay:10.37,2013-02-06 09:36:00,
2013-02-06 10:41:00,39.5,27.5,29.56,SW,221,5.8,5.8,62,0.00,SCT,,0.00,306.0,WeatherDisplay:10.37,2013-02-06 09:41:00,
2013-02-06 10:46:00,39.3,27.7,29.56,South,190,5.8,5.8,63,0.00,SCT,,0.00,237.0,WeatherDisplay:10.37,2013-02-06 09:46:00,
2013-02-06 10:51:00,39.6,27.2,29.56,WSW,240,9.2,9.2,61,0.00,FEW,SCT,0.00,320.0,WeatherDisplay:10.37,2013-02-06 09:51:00,
2013-02-06 10:56:00,39.9,28.3,29.56,WSW,238,6.9,6.9,63,0.00,FEW,SCT,0.00,366.0,WeatherDisplay:10.37,2013-02-06 09:56:00,
2013-02-06 11:01:00,40.3,28.7,29.56,WSW,255,5.0,5.0,63,0.00,CLR,SCT,0.00,376.0,WeatherDisplay:10.37,2013-02-06 10:01:00,
2013-02-06 11:06:00,40.4,26.8,29.56,WSW,248,7.0,7.0,58,0.00,FEW,SCT,0.00,374.0,WeatherDisplay:10.37,2013-02-06 10:06:00,
2013-02-06 11:11:00,40.2,26.2,29.55,WSW,237,4.6,4.6,57,0.00,FEW,SCT,0.00,373.0,WeatherDisplay:10.37,2013-02-06 10:11:00,
2013-02-06 11:16:00,40.5,28.5,29.55,SSW,207,6.9,6.9,62,0.00,FEW,SCT,0.00,381.0,WeatherDisplay:10.37,2013-02-06 10:16:00,
2013-02-06 11:22:00,41.1,28.7,29.55,SW,232,5.8,5.8,61,0.00,CLR,SCT,0.00,466.0,WeatherDisplay:10.37,2013-02-06 10:22:00,
2013-02-06 11:27:00,41.7,28.8,29.55,SW,229,10.0,10.0,60,0.00,CLR,SCT,0.00,492.0,WeatherDisplay:10.37,2013-02-06 10:27:00,
2013-02-06 11:32:00,40.9,27.7,29.55,WSW,239,4.0,4.0,59,0.00,BKN,SCT,0.00,148.0,WeatherDisplay:10.37,2013-02-06 10:32:00,
2013-02-06 11:37:00,39.5,26.8,29.55,WSW,240,9.2,9.2,60,0.00,OVC,SCT,0.00,121.0,WeatherDisplay:10.37,2013-02-06 10:37:00,
2013-02-06 11:42:00,38.8,26.9,29.55,SW,232,8.1,8.1,62,0.00,OVC,SCT,0.00,79.0,WeatherDisplay:10.37,2013-02-06 10:42:00,
2013-02-06 11:47:00,37.8,26.7,29.55,West,268,9.2,9.2,64,0.00,OVC,SCT,0.00,74.0,WeatherDisplay:10.37,2013-02-06 10:47:00,
2013-02-06 11:52:00,37.1,27.2,29.54,WSW,245,6.0,6.0,67,0.00,OVC,SCT,0.00,90.0,WeatherDisplay:10.37,2013-02-06 10:52:00,
2013-02-06 11:57:00,37.4,26.7,29.54,WSW,248,6.9,6.9,65,0.00,CLR,SCT,0.00,141.0,WeatherDisplay:10.37,2013-02-06 10:57:00,
2013-02-06 12:02:00,37.6,26.9,29.54,WSW,251,4.0,4.0,65,0.00,OVC,SCT,0.00,113.0,WeatherDisplay:10.37,2013-02-06 11:02:00,
2013-02-06 12:07:00,37.2,26.1,29.54,WSW,242,4.6,4.6,64,0.00,OVC,SCT,0.00,105.0,WeatherDisplay:10.37,2013-02-06 11:07:00,
2013-02-06 12:12:00,36.8,26.1,29.53,WSW,238,4.6,4.6,65,0.00,OVC,SCT,0.00,109.0,WeatherDisplay:10.37,2013-02-06 11:12:00,
2013-02-06 12:17:00,37.7,27.7,29.53,SSW,209,6.9,6.9,67,0.00,CLR,SCT,0.00,422.0,WeatherDisplay:10.37,2013-02-06 11:17:00,
2013-02-06 12:22:00,39.2,26.9,29.53,SW,215,3.5,3.5,61,0.00,CLR,SCT,0.00,439.0,WeatherDisplay:10.37,2013-02-06 11:22:00,
2013-02-06 12:27:00,39.9,26.7,29.53,SW,236,4.0,4.0,59,0.00,CLR,SCT,0.00,454.0,WeatherDisplay:10.37,2013-02-06 11:27:00,
2013-02-06 12:32:00,40.5,26.9,29.53,SW,236,10.4,10.4,58,0.00,CLR,SCT,0.00,457.0,WeatherDisplay:10.37,2013-02-06 11:32:00,
2013-02-06 12:38:00,40.7,26.2,29.53,WSW,251,12.7,12.7,56,0.00,CLR,SCT,0.00,410.0,WeatherDisplay:10.37,2013-02-06 11:38:00,
2013-02-06 12:43:00,40.4,25.5,29.53,WNW,292,8.0,8.0,55,0.00,FEW,SCT,0.00,383.0,WeatherDisplay:10.37,2013-02-06 11:43:00,
2013-02-06 12:48:00,40.5,26.4,29.52,WSW,254,7.0,7.0,57,0.00,FEW,SCT,0.00,381.0,WeatherDisplay:10.37,2013-02-06 11:48:00,
2013-02-06 12:53:00,40.6,24.8,29.52,SW,226,3.5,3.5,53,0.00,FEW,SCT,0.00,367.0,WeatherDisplay:10.37,2013-02-06 11:53:00,
2013-02-06 12:58:00,40.8,26.7,29.52,SW,234,7.0,7.0,57,0.00,FEW,SCT,0.00,373.0,WeatherDisplay:10.37,2013-02-06 11:58:00,
2013-02-06 13:03:00,40.9,26.4,29.52,WNW,301,5.0,5.0,56,0.00,FEW,SCT,0.00,369.0,WeatherDisplay:10.37,2013-02-06 12:03:00,
2013-02-06 13:08:00,40.8,25.4,29.52,WSW,247,4.6,4.6,54,0.00,FEW,SCT,0.00,371.0,WeatherDisplay:10.37,2013-02-06 12:08:00,
2013-02-06 13:13:00,40.6,25.2,29.51,WSW,246,3.5,3.5,54,0.00,FEW,SCT,0.00,355.0,WeatherDisplay:10.37,2013-02-06 12:13:00,
2013-02-06 13:18:00,40.6,26.5,29.52,West,264,5.8,5.8,57,0.00,CLR,SCT,0.00,385.0,WeatherDisplay:10.37,2013-02-06 12:18:00,
2013-02-06 13:23:00,40.9,25.5,29.52,WNW,290,6.9,6.9,54,0.00,CLR,SCT,0.00,383.0,WeatherDisplay:10.37,2013-02-06 12:23:00,
2013-02-06 13:28:00,40.3,24.1,29.51,NNW,343,4.6,4.6,52,0.00,FEW,SCT,0.00,359.0,WeatherDisplay:10.37,2013-02-06 12:28:00,
2013-02-06 13:33:00,40.4,25.9,29.51,WSW,238,5.8,5.8,56,0.00,OVC,SCT,0.00,90.0,WeatherDisplay:10.37,2013-02-06 12:33:00,
2013-02-06 13:38:00,39.4,23.7,29.51,WSW,243,3.0,3.0,53,0.00,OVC,SCT,0.00,381.0,WeatherDisplay:10.37,2013-02-06 12:38:00,
2013-02-06 13:43:00,39.6,25.2,29.51,WSW,243,3.5,3.5,56,0.00,FEW,SCT,0.00,359.0,WeatherDisplay:10.37,2013-02-06 12:43:00,
2013-02-06 13:48:00,40.4,24.6,29.51,WSW,241,4.0,4.0,53,0.00,FEW,SCT,0.00,332.0,WeatherDisplay:10.37,2013-02-06 12:48:00,
2013-02-06 13:53:00,40.5,24.2,29.51,SSW,205,6.9,6.9,52,0.00,FEW,SCT,0.00,336.0,WeatherDisplay:10.37,2013-02-06 12:53:00,
2013-02-06 13:58:00,40.6,25.2,29.51,WNW,286,5.0,5.0,54,0.00,FEW,SCT,0.00,329.0,WeatherDisplay:10.37,2013-02-06 12:58:00,
2013-02-06 14:03:00,40.7,25.3,29.52,WNW,286,3.5,3.5,54,0.00,FEW,SCT,0.00,325.0,WeatherDisplay:10.37,2013-02-06 13:03:00,
2013-02-06 14:08:00,40.0,23.8,29.52,WNW,286,2.3,2.3,52,0.00,FEW,SCT,0.00,304.0,WeatherDisplay:10.37,2013-02-06 13:08:00,
2013-02-06 14:13:00,40.5,24.7,29.52,South,191,5.0,5.0,53,0.00,FEW,SCT,0.00,267.0,WeatherDisplay:10.37,2013-02-06 13:13:00,
2013-02-06 14:18:00,40.6,25.2,29.52,SW,218,5.0,5.0,54,0.00,FEW,SCT,0.00,308.0,WeatherDisplay:10.37,2013-02-06 13:18:00,
2013-02-06 14:23:00,40.7,24.9,29.52,SSW,213,6.9,6.9,53,0.00,BKN,SCT,0.00,127.0,WeatherDisplay:10.37,2013-02-06 13:23:00,
2013-02-06 14:28:00,40.4,25.1,29.52,SSE,161,9.2,9.2,54,0.00,CLR,SCT,0.00,371.0,WeatherDisplay:10.37,2013-02-06 13:28:00,
2013-02-06 14:33:00,40.3,25.4,29.52,South,184,8.1,8.1,55,0.00,BKN,SCT,0.00,142.0,WeatherDisplay:10.37,2013-02-06 13:33:00,
2013-02-06 14:38:00,39.9,25.0,29.53,South,180,6.9,6.9,55,0.00,BKN,SCT,0.00,278.0,WeatherDisplay:10.37,2013-02-06 13:38:00,
2013-02-06 14:43:00,39.8,25.8,29.53,South,173,8.0,8.0,57,0.00,CLR,SCT,0.00,309.0,WeatherDisplay:10.37,2013-02-06 13:43:00,
2013-02-06 14:48:00,39.9,25.9,29.53,South,175,6.0,6.0,57,0.00,CLR,SCT,0.00,283.0,WeatherDisplay:10.37,2013-02-06 13:48:00,
2013-02-06 14:53:00,39.6,25.2,29.53,South,169,8.0,8.0,56,0.00,CLR,SCT,0.00,264.0,WeatherDisplay:10.37,2013-02-06 13:53:00,
2013-02-06 14:58:00,39.2,25.2,29.53,SW,215,6.9,6.9,57,0.00,FEW,SCT,0.00,232.0,WeatherDisplay:10.37,2013-02-06 13:58:00,
2013-02-06 15:03:00,39.0,25.0,29.53,SW,215,9.2,9.2,57,0.00,FEW,SCT,0.00,211.0,WeatherDisplay:10.37,2013-02-06 14:03:00,
2013-02-06 15:08:00,39.1,25.6,29.53,SW,236,6.9,6.9,58,0.00,FEW,SCT,0.00,200.0,WeatherDisplay:10.37,2013-02-06 14:08:00,
2013-02-06 15:13:00,38.8,25.3,29.52,SW,225,6.0,6.0,58,0.00,FEW,SCT,0.00,186.0,WeatherDisplay:10.37,2013-02-06 14:13:00,
2013-02-06 15:18:00,38.6,25.1,29.52,SW,236,5.0,5.0,58,0.00,SCT,,0.00,171.0,WeatherDisplay:10.37,2013-02-06 14:18:00,
2013-02-06 15:23:00,38.5,24.6,29.53,SW,232,5.0,5.0,57,0.00,SCT,,0.00,158.0,WeatherDisplay:10.37,2013-02-06 14:23:00,
2013-02-06 15:28:00,38.4,25.3,29.53,SW,232,5.0,5.0,59,0.00,SCT,,0.00,114.0,WeatherDisplay:10.37,2013-02-06 14:28:00,
2013-02-06 15:33:00,38.0,24.9,29.53,SW,236,4.6,4.6,59,0.00,SCT,,0.00,134.0,WeatherDisplay:10.37,2013-02-06 14:33:00,
2013-02-06 15:38:00,37.7,25.8,29.53,WSW,240,6.0,6.0,62,0.00,SCT,,0.00,118.0,WeatherDisplay:10.37,2013-02-06 14:38:00,
2013-02-06 15:43:00,37.6,25.0,29.52,SW,225,4.0,4.0,60,0.00,OVC,SCT,0.00,30.0,WeatherDisplay:10.37,2013-02-06 14:43:00,
2013-02-06 15:48:00,37.5,24.5,29.52,SW,236,6.0,6.0,59,0.00,OVC,SCT,0.00,51.0,WeatherDisplay:10.37,2013-02-06 14:48:00,
2013-02-06 15:53:00,37.3,25.5,29.52,WSW,242,5.0,5.0,62,0.00,OVC,SCT,0.00,26.0,WeatherDisplay:10.37,2013-02-06 14:53:00,
2013-02-06 15:58:00,37.2,25.4,29.53,SW,235,3.5,3.5,62,0.00,OVC,SCT,0.00,25.0,WeatherDisplay:10.37,2013-02-06 14:58:00,
2013-02-06 16:04:00,36.8,25.4,29.52,SW,235,3.5,3.5,63,0.00,OVC,SCT,0.00,23.0,WeatherDisplay:10.37,2013-02-06 15:04:00,
2013-02-06 16:09:00,36.4,26.1,29.52,SW,235,3.5,3.5,66,0.00,OVC,SCT,0.00,21.0,WeatherDisplay:10.37,2013-02-06 15:09:00,
2013-02-06 16:14:00,36.0,25.7,29.52,SW,236,3.5,3.5,66,0.00,OVC,SCT,0.00,21.0,WeatherDisplay:10.37,2013-02-06 15:14:00,
2013-02-06 16:19:00,35.8,25.5,29.52,SW,235,2.3,2.3,66,0.00,OVC,SCT,0.00,21.0,WeatherDisplay:10.37,2013-02-06 15:19:00,
2013-02-06 16:24:00,35.5,26.0,29.52,SW,235,2.3,2.3,68,0.00,OVC,SCT,0.00,25.0,WeatherDisplay:10.37,2013-02-06 15:24:00,
2013-02-06 16:29:00,35.3,25.8,29.52,SW,235,2.3,2.3,68,0.00,OVC,SCT,0.00,25.0,WeatherDisplay:10.37,2013-02-06 15:29:00,
2013-02-06 16:34:00,35.1,25.6,29.52,SW,236,2.3,2.3,68,0.00,BKN,SCT,0.00,26.0,WeatherDisplay:10.37,2013-02-06 15:34:00,
2013-02-06 16:39:00,35.1,25.9,29.52,SW,235,2.0,2.0,69,0.00,BKN,SCT,0.00,23.0,WeatherDisplay:10.37,2013-02-06 15:39:00,
2013-02-06 16:44:00,34.9,26.1,29.52,SW,235,2.3,2.3,70,0.00,BKN,SCT,0.00,19.0,WeatherDisplay:10.37,2013-02-06 15:44:00,
2013-02-06 16:49:00,34.7,25.6,29.52,SW,236,2.3,2.3,69,0.00,BKN,SCT,0.00,14.0,WeatherDisplay:10.37,2013-02-06 15:49:00,
2013-02-06 16:54:00,34.6,25.5,29.52,SW,235,2.3,2.3,69,0.00,FEW,SCT,0.00,9.0,WeatherDisplay:10.37,2013-02-06 15:54:00,
2013-02-06 16:59:00,34.5,25.0,29.52,SW,236,1.2,0.0,68,0.00,CLR,SCT,0.00,5.0,WeatherDisplay:10.37,2013-02-06 15:59:00,
2013-02-06 17:04:00,34.2,25.1,29.53,SW,236,2.3,2.3,69,0.00,OVC,SCT,0.00,0.0,WeatherDisplay:10.37,2013-02-06 16:04:00,
2013-02-06 17:09:00,34.0,25.6,29.53,SW,235,1.2,1.2,71,0.00,OVC,SCT,0.00,0.0,WeatherDisplay:10.37,2013-02-06 16:09:00,
2013-02-06 17:15:00,33.8,25.7,29.53,SW,235,1.0,0.0,72,0.00,OVC,SCT,0.00,0.0,WeatherDisplay:10.37,2013-02-06 16:15:00,
2013-02-06 17:20:00,33.7,25.6,29.53,SW,235,2.3,2.3,72,0.00,OVC,SCT,0.00,0.0,WeatherDisplay:10.37,2013-02-06 16:20:00,
2013-02-06 17:25:00,33.6,25.5,29.53,SW,235,2.3,2.3,72,0.00,OVC,SCT,0.00,0.0,WeatherDisplay:10.37,2013-02-06 16:25:00,
2013-02-06 17:30:00,33.5,25.8,29.53,SW,235,1.2,0.0,73,0.00,OVC,SCT,0.00,0.0,WeatherDisplay:10.37,2013-02-06 16:30:00,
2013-02-06 17:35:00,33.4,26.0,29.53,SW,235,0.0,0.0,74,0.00,CLR,SCT,0.00,0.0,WeatherDisplay:10.37,2013-02-06 16:35:00,
2013-02-06 17:40:00,33.1,25.7,29.53,SW,236,0.0,0.0,74,0.00,CLR,SCT,0.00,0.0,WeatherDisplay:10.37,2013-02-06 16:40:00,
2013-02-06 17:45:00,32.9,25.5,29.53,SW,235,0.0,0.0,74,0.00,CLR,SCT,0.00,0.0,WeatherDisplay:10.37,2013-02-06 16:45:00,
2013-02-06 17:50:00,32.6,25.9,29.54,SW,236,0.0,0.0,76,0.00,CLR,SCT,0.00,0.0,WeatherDisplay:10.37,2013-02-06 16:50:00,
2013-02-06 17:55:00,32.4,25.4,29.54,SW,235,0.0,0.0,75,0.00,CLR,SCT,0.00,0.0,WeatherDisplay:10.37,2013-02-06 16:55:00,
2013-02-06 18:00:00,32.3,25.6,29.54,SW,235,0.0,0.0,76,0.00,CLR,SCT,0.00,0.0,WeatherDisplay:10.37,2013-02-06 17:00:00,
2013-02-06 18:05:00,31.9,25.5,29.54,SW,235,1.2,1.2,77,0.00,CLR,SCT,0.00,0.0,WeatherDisplay:10.37,2013-02-06 17:05:00,
2013-02-06 18:10:00,31.8,25.4,29.55,SW,235,1.2,0.0,77,0.00,CLR,SCT,0.00,0.0,WeatherDisplay:10.37,2013-02-06 17:10:00,
2013-02-06 18:15:00,31.9,25.8,29.54,SW,235,0.0,0.0,78,0.00,CLR,SCT,0.00,0.0,WeatherDisplay:10.37,2013-02-06 17:15:00,
2013-02-06 18:20:00,31.6,25.5,29.55,SW,236,0.0,0.0,78,0.00,CLR,SCT,0.00,0.0,WeatherDisplay:10.37,2013-02-06 17:20:00,
2013-02-06 18:25:00,31.1,26.0,29.54,SW,235,0.0,0.0,81,0.00,CLR,SCT,0.00,0.0,WeatherDisplay:10.37,2013-02-06 17:25:00,
2013-02-06 18:30:00,30.8,25.7,29.55,SW,235,0.0,0.0,81,0.00,CLR,SCT,0.00,0.0,WeatherDisplay:10.37,2013-02-06 17:30:00,
2013-02-06 18:35:00,30.6,25.5,29.55,SW,235,1.2,1.2,81,0.00,CLR,SCT,0.00,0.0,WeatherDisplay:10.37,2013-02-06 17:35:00,
2013-02-06 18:41:00,30.5,25.4,29.55,SW,235,2.0,2.0,81,0.00,CLR,SCT,0.00,0.0,WeatherDisplay:10.37,2013-02-06 17:41:00,
2013-02-06 18:46:00,30.3,25.5,29.55,SW,236,1.2,1.2,82,0.00,CLR,SCT,0.00,0.0,WeatherDisplay:10.37,2013-02-06 17:46:00,
2013-02-06 18:51:00,30.1,25.3,29.55,SW,235,2.3,2.3,82,0.00,CLR,SCT,0.00,0.0,WeatherDisplay:10.37,2013-02-06 17:51:00,
2013-02-06 18:56:00,30.0,25.5,29.56,SW,236,3.5,3.5,83,0.00,CLR,SCT,0.00,0.0,WeatherDisplay:10.37,2013-02-06 17:56:00,
2013-02-06 19:01:00,29.9,25.7,29.56,SW,235,3.5,3.5,84,0.00,CLR,SCT,0.00,0.0,WeatherDisplay:10.37,2013-02-06 18:01:00,
2013-02-06 19:06:00,29.7,25.5,29.56,SW,236,2.3,2.3,84,0.00,CLR,SCT,0.00,0.0,WeatherDisplay:10.37,2013-02-06 18:06:00,
2013-02-06 19:11:00,29.7,25.5,29.56,SW,236,2.3,2.3,84,0.00,CLR,SCT,0.00,0.0,WeatherDisplay:10.37,2013-02-06 18:11:00,
2013-02-06 19:16:00,29.7,25.5,29.55,SW,236,1.2,0.0,84,0.00,CLR,SCT,0.00,0.0,WeatherDisplay:10.37,2013-02-06 18:16:00,
2013-02-06 19:21:00,29.8,25.3,29.55,SW,236,2.3,2.3,83,0.00,CLR,SCT,0.00,0.0,WeatherDisplay:10.37,2013-02-06 18:21:00,
2013-02-06 19:26:00,29.8,25.6,29.56,SW,236,2.3,2.3,84,0.00,CLR,SCT,0.00,0.0,WeatherDisplay:10.37,2013-02-06 18:26:00,
2013-02-06 19:32:00,29.7,25.5,29.56,SW,235,2.3,2.3,84,0.00,CLR,SCT,0.00,0.0,WeatherDisplay:10.37,2013-02-06 18:32:00,
2013-02-06 19:37:00,29.7,25.5,29.56,SW,235,2.3,2.3,84,0.00,CLR,SCT,0.00,0.0,WeatherDisplay:10.37,2013-02-06 18:37:00,
2013-02-06 19:42:00,29.5,25.0,29.56,SW,235,0.0,0.0,83,0.00,CLR,SCT,0.00,0.0,WeatherDisplay:10.37,2013-02-06 18:42:00,
2013-02-06 19:47:00,29.3,25.1,29.56,SW,236,2.3,2.3,84,0.00,CLR,SCT,0.00,0.0,WeatherDisplay:10.37,2013-02-06 18:47:00,
2013-02-06 19:52:00,29.3,25.1,29.56,SW,236,1.2,1.2,84,0.00,CLR,SCT,0.00,0.0,WeatherDisplay:10.37,2013-02-06 18:52:00,
2013-02-06 19:57:00,29.2,25.0,29.56,SW,235,3.5,3.5,84,0.00,CLR,SCT,0.00,0.0,WeatherDisplay:10.37,2013-02-06 18:57:00,
2013-02-06 20:02:00,29.2,25.0,29.57,SW,234,2.3,2.3,84,0.00,CLR,SCT,0.00,0.0,WeatherDisplay:10.37,2013-02-06 19:02:00,
2013-02-06 20:07:00,29.0,24.5,29.57,SW,235,2.3,2.3,83,0.00,CLR,SCT,0.00,0.0,WeatherDisplay:10.37,2013-02-06 19:07:00,
2013-02-06 20:12:00,29.2,24.7,29.57,SW,235,2.3,2.3,83,0.00,CLR,SCT,0.00,0.0,WeatherDisplay:10.37,2013-02-06 19:12:00,
2013-02-06 20:17:00,29.4,24.9,29.57,SW,235,1.2,1.2,83,0.00,CLR,SCT,0.00,0.0,WeatherDisplay:10.37,2013-02-06 19:17:00,
2013-02-06 20:22:00,29.4,24.6,29.57,SW,235,1.0,1.0,82,0.00,CLR,SCT,0.00,0.0,WeatherDisplay:10.37,2013-02-06 19:22:00,
2013-02-06 20:27:00,29.3,24.8,29.57,SW,235,0.0,0.0,83,0.00,CLR,SCT,0.00,0.0,WeatherDisplay:10.37,2013-02-06 19:27:00,
2013-02-06 20:32:00,29.1,24.6,29.57,SW,234,0.0,0.0,83,0.00,CLR,SCT,0.00,0.0,WeatherDisplay:10.37,2013-02-06 19:32:00,
2013-02-06 20:37:00,28.5,24.0,29.57,SW,235,1.2,1.2,83,0.00,CLR,SCT,0.00,0.0,WeatherDisplay:10.37,2013-02-06 19:37:00,
2013-02-06 20:42:00,28.1,24.2,29.57,SW,235,0.0,0.0,85,0.00,CLR,SCT,0.00,0.0,WeatherDisplay:10.37,2013-02-06 19:42:00,
2013-02-06 20:47:00,28.0,24.1,29.57,SW,235,0.0,0.0,85,0.00,CLR,SCT,0.00,0.0,WeatherDisplay:10.37,2013-02-06 19:47:00,
2013-02-06 20:52:00,27.8,23.9,29.57,SW,235,0.0,0.0,85,0.00,CLR,SCT,0.00,0.0,WeatherDisplay:10.37,2013-02-06 19:52:00,
2013-02-06 20:57:00,27.7,23.8,29.57,SW,235,0.0,0.0,85,0.00,CLR,SCT,0.00,0.0,WeatherDisplay:10.37,2013-02-06 19:57:00,
2013-02-06 21:02:00,27.6,24.0,29.57,SW,235,0.0,0.0,86,0.00,CLR,SCT,0.00,0.0,WeatherDisplay:10.37,2013-02-06 20:02:00,
2013-02-06 21:07:00,27.4,23.8,29.58,SW,235,0.0,0.0,86,0.00,CLR,SCT,0.00,0.0,WeatherDisplay:10.37,2013-02-06 20:07:00,
2013-02-06 21:12:00,27.4,23.8,29.58,SW,234,0.0,0.0,86,0.00,CLR,SCT,0.00,0.0,WeatherDisplay:10.37,2013-02-06 20:12:00,
2013-02-06 21:17:00,27.2,23.6,29.58,SW,234,0.0,0.0,86,0.00,CLR,SCT,0.00,0.0,WeatherDisplay:10.37,2013-02-06 20:17:00,
2013-02-06 21:22:00,27.1,23.5,29.58,SW,234,0.0,0.0,86,0.00,CLR,SCT,0.00,0.0,WeatherDisplay:10.37,2013-02-06 20:22:00,
2013-02-06 21:27:00,27.2,23.6,29.58,SW,235,0.0,0.0,86,0.00,CLR,SCT,0.00,0.0,WeatherDisplay:10.37,2013-02-06 20:27:00,
2013-02-06 21:32:00,27.0,23.4,29.58,SW,234,0.0,0.0,86,0.00,CLR,SCT,0.00,0.0,WeatherDisplay:10.37,2013-02-06 20:32:00,
2013-02-06 21:37:00,26.9,23.3,29.58,SW,235,0.0,0.0,86,0.00,CLR,SCT,0.00,0.0,WeatherDisplay:10.37,2013-02-06 20:37:00,
2013-02-06 21:42:00,26.8,23.4,29.58,SW,236,1.2,1.2,87,0.00,CLR,SCT,0.00,0.0,WeatherDisplay:10.37,2013-02-06 20:42:00,
2013-02-06 21:47:00,26.8,23.4,29.58,SW,235,1.2,0.0,87,0.00,CLR,SCT,0.00,0.0,WeatherDisplay:10.37,2013-02-06 20:47:00,
2013-02-06 21:52:00,26.7,23.4,29.58,SW,236,0.0,0.0,87,0.00,CLR,SCT,0.00,0.0,WeatherDisplay:10.37,2013-02-06 20:52:00,
2013-02-06 21:57:00,26.4,22.8,29.58,SW,236,0.0,0.0,86,0.00,CLR,SCT,0.00,0.0,WeatherDisplay:10.37,2013-02-06 20:57:00,
2013-02-06 22:02:00,26.3,23.0,29.58,SW,235,1.2,0.0,87,0.00,CLR,SCT,0.00,0.0,WeatherDisplay:10.37,2013-02-06 21:02:00,
2013-02-06 22:07:00,26.4,23.1,29.58,SW,235,0.0,0.0,87,0.00,CLR,SCT,0.00,0.0,WeatherDisplay:10.37,2013-02-06 21:07:00,
2013-02-06 22:12:00,26.2,22.9,29.58,SW,235,0.0,0.0,87,0.00,CLR,SCT,0.00,0.0,WeatherDisplay:10.37,2013-02-06 21:12:00,
2013-02-06 22:17:00,26.2,22.9,29.58,SW,234,0.0,0.0,87,0.00,CLR,SCT,0.00,0.0,WeatherDisplay:10.37,2013-02-06 21:17:00,
2013-02-06 22:22:00,26.1,22.8,29.58,SW,236,0.0,0.0,87,0.00,CLR,SCT,0.00,0.0,WeatherDisplay:10.37,2013-02-06 21:22:00,
2013-02-06 22:27:00,26.0,22.7,29.59,SW,235,0.0,0.0,87,0.00,CLR,SCT,0.00,0.0,WeatherDisplay:10.37,2013-02-06 21:27:00,
2013-02-06 22:32:00,26.0,22.7,29.59,SW,236,1.2,1.2,87,0.00,CLR,SCT,0.00,0.0,WeatherDisplay:10.37,2013-02-06 21:32:00,
2013-02-06 22:37:00,25.8,22.5,29.59,SW,235,3.5,3.5,87,0.00,CLR,SCT,0.00,0.0,WeatherDisplay:10.37,2013-02-06 21:37:00,
2013-02-06 22:42:00,25.6,22.3,29.59,SW,234,3.5,3.5,87,0.00,CLR,SCT,0.00,0.0,WeatherDisplay:10.37,2013-02-06 21:42:00,
2013-02-06 22:47:00,25.5,22.2,29.59,SW,234,3.5,3.5,87,0.00,CLR,SCT,0.00,0.0,WeatherDisplay:10.37,2013-02-06 21:47:00,
2013-02-06 22:52:00,25.5,22.2,29.59,SW,235,2.3,2.3,87,0.00,CLR,SCT,0.00,0.0,WeatherDisplay:10.37,2013-02-06 21:52:00,
2013-02-06 22:57:00,25.5,22.2,29.59,SW,236,2.3,2.3,87,0.00,CLR,SCT,0.00,0.0,WeatherDisplay:10.37,2013-02-06 21:57:00,
2013-02-06 23:02:00,25.6,22.3,29.59,SW,235,3.5,3.5,87,0.00,CLR,SCT,0.00,0.0,WeatherDisplay:10.37,2013-02-06 22:02:00,
2013-02-06 23:07:00,25.4,22.1,29.60,SW,234,3.5,3.5,87,0.00,CLR,SCT,0.00,0.0,WeatherDisplay:10.37,2013-02-06 22:07:00,
2013-02-06 23:12:00,25.3,22.0,29.60,SW,236,3.5,3.5,87,0.00,CLR,SCT,0.00,0.0,WeatherDisplay:10.37,2013-02-06 22:12:00,
2013-02-06 23:17:00,25.6,22.3,29.60,SW,235,2.0,2.0,87,0.00,CLR,SCT,0.00,0.0,WeatherDisplay:10.37,2013-02-06 22:17:00,
2013-02-06 23:22:00,25.8,22.5,29.60,SW,235,2.3,2.3,87,0.00,CLR,SCT,0.00,0.0,WeatherDisplay:10.37,2013-02-06 22:22:00,
2013-02-06 23:27:00,25.6,22.3,29.61,SW,234,0.0,0.0,87,0.00,CLR,SCT,0.00,0.0,WeatherDisplay:10.37,2013-02-06 22:27:00,
2013-02-06 23:32:00,25.5,22.2,29.61,SW,234,0.0,0.0,87,0.00,CLR,SCT,0.00,0.0,WeatherDisplay:10.37,2013-02-06 22:32:00,
2013-02-06 23:37:00,25.3,22.0,29.61,SW,235,2.3,2.3,87,0.00,CLR,SCT,0.00,0.0,WeatherDisplay:10.37,2013-02-06 22:37:00,
2013-02-06 23:42:00,25.3,22.0,29.61,SW,236,1.2,0.0,87,0.00,CLR,SCT,0.00,0.0,WeatherDisplay:10.37,2013-02-06 22:42:00,
2013-02-06 23:47:00,25.3,22.0,29.62,SW,235,0.0,0.0,87,0.00,CLR,SCT,0.00,0.0,WeatherDisplay:10.37,2013-02-06 22:47:00,
2013-02-06 23:52:00,25.1,21.8,29.61,SW,235,0.0,0.0,87,0.00,CLR,SCT,0.00,0.0,WeatherDisplay:10.37,2013-02-06 22:52:00,
2013-02-06 23:57:00,25.1,21.8,29.61,SW,234,0.0,0.0,87,0.00,CLR,SCT,0.00,0.0,WeatherDisplay:10.37,2013-02-06 22:57:00,